{"data":{"norad_id":53679,"epoch":"2026-09-20T14:36:34.322976Z","epoch_age_seconds":72274,"freshness":"FRESH","line1":"1 53679U 22105AH  26263.60873059  .00003405  00000+0  10775-3 0  9991","line2":"2 53679  97.2842 140.2830 0001833  82.0913 278.0538 15.33438727222754","mean_motion":15.33438727,"eccentricity":0.0001833,"inclination_deg":97.2842,"raan_deg":140.283,"arg_perigee_deg":82.0913,"mean_anomaly_deg":278.0538,"bstar":0.00010775,"rev_number":22275,"period_min":93.906588808879,"perigee_km":464.30738857921,"apogee_km":466.81628857344,"semimajor_km":6843.6988385763,"source":"CELESTRAK","updated_at":"2026-09-21T09:00:32.978145Z"}}